AirNav   Pilot Hours Calculator
 
 780 users online  

1T7 Kestrel Airpark
San Antonio, Texas, USA

GOING TO SAN ANTONIO?


FAA INFORMATION EFFECTIVE 26 MARCH 2020

Location

FAA Identifier: 1T7
Lat/Long: 29-48-42.3000N 098-25-33.8000W
29-48.705000N 098-25.563333W
29.8117500,-98.4260556
(estimated)
Elevation: 1261 ft. / 384 m (estimated)
Variation: 07E (1995)
From city: 23 miles N of SAN ANTONIO, TX
Time zone: UTC -5 (UTC -6 during Standard Time)
Zip code: 78070

Airport Operations

Airport use: Open to the public
Activation date: 06/1999
Control tower: no
ARTCC: HOUSTON CENTER
FSS: SAN ANGELO FLIGHT SERVICE STATION
NOTAMs facility: SJT (NOTAM-D service available)
Attendance: CONTINUOUS
Wind indicator: yes
Segmented circle: yes
Lights: SS-SR

Airport Communications

CTAF/UNICOM: 122.975
WX AWOS-3 at 5C1 (15 nm W): 118.725 (830-755-9099)
WX ASOS at SAT (17 nm S): PHONE 210-805-5583

Nearby radio navigation aids

VOR radial/distance  VOR name  Freq  Var
SATr002/10.2SAN ANTONIO VORTAC116.8008E
RNDr332/19.0RANDOLPH VORTAC112.3005E
STVr140/27.8STONEWALL VORTAC113.8008E
SSFr353/(33.2)STINSON VOR108.4009E

 
NDB name  Hdg/Dist  Freq  Var  ID
ALAMO027/14.436804EAN .- -.

Airport Services

Fuel available: 100LL
FUEL SELF SERVICE. FOR ASSISTANCE CALL AMGR AT 830-522-1885.
Parking: tiedowns
Airframe service: MAJOR
Powerplant service: MAJOR
Bulk oxygen: HIGH

Runway Information

Runway 12/30

Dimensions: 3000 x 40 ft. / 914 x 12 m
Surface: asphalt, in good condition
Runway edge lights: non-standard
NSTD LIRL; RY 12 LGTS NOT AT THLD.
Runway edge markings: MARKINGS ARE FADED
RY NRS 35 FT HIGH.
Operational restrictions: RY 30 RISES RAPIDLY AT NORTH END.
RUNWAY 12  RUNWAY 30
Latitude: 29-48.856647N29-48.553942N
Longitude: 098-25.788255W098-25.339040W
Elevation: 1261.0 ft.1218.0 ft.
Traffic pattern: leftright
Runway heading: 121 magnetic, 128 true301 magnetic, 308 true
Markings: NSTD, in poor conditionNSTD, in poor condition
Obstructions: 21 ft. trees, 295 ft. from runway, 30 ft. left of centerline, 4:1 slope to clear
+15 FT ROAD 0 FT FM THLD 70 FT L OF CNTRLN, +35 FT TREE 110 FT FM THLD 70 FT L OF CNTRLN, +20 FT TREE 25 FT FM THLD 90 FT L OF CNTRLN.
15 ft. road, 200 ft. from runway
+15 FT ROAD 15-200 FT FM THLD 0-120 FT L OF CNTRLN.

Airport Ownership and Management from official FAA records

Ownership: Privately-owned
Owner: KESTREL AIRPARK RUNWAY ASSOCIATION
150 FLIGHTLINE DRIVE
SPRING BRANCH, TX 78070
Phone (830) 522-1885
Manager: DOUG HOOKER
210 KESTREL DRIVE
SPRING BRANCH, TX 78070
Phone (830) 522-1885

Airport Operational Statistics

Aircraft based on the field: 83
Single engine airplanes: 75
Multi engine airplanes: 5
Helicopters: 2
Ultralights: 1
    
Aircraft operations: avg 133/week *
95% local general aviation
5% transient general aviation
* for 12-month period ending 27 September 2016

Additional Remarks

DEER ON & INVOF RY.
TGL AND LOW APCHS PROHIBITED FOR TRANSIENT & COMMERICAL ACFTS. TKOFS RSTRD BTN 2200-0600.
NO HEL TRNG OPS ALLOWED.
FOR CD CTC SAN ANTONIO APCH AT 210-805-5516.
USE EXTREME CTN FOR HIGH PER MIL ACFT FROM RANDOLPH AFB AT OR ABV 3000 FT MSL MON-FRI 0800-2200 AND WHEN TWR HRS EXTD BY NOTAM, OCNL SAT AND SUN.

Instrument Procedures

There are no published instrument procedures at 1T7.

Some nearby airports with instrument procedures:

5C1 - Boerne Stage Field Airport (15 nm W)
KSAT - San Antonio International Airport (17 nm S)
KRND - Randolph Air Force Base (19 nm SE)
KBAZ - New Braunfels Regional Airport (21 nm E)
KSKF - Kelly Field Airport (27 nm S)
 
Loc | Ops | Rwys | IFR | FBO | Links
Com | Nav | Svcs | Stats | Notes
Area around 1T7 (Kestrel Airpark)
 
Road maps at: MapQuest Bing Google
 
Aerial photo
WARNING: Photo may not be current or correct
Aerial photo of 1T7 (Kestrel Airpark)
Do you have a better or more recent aerial photo of Kestrel Airpark that you would like to share? If so, please send us your photo.

 
Sectional chart

 
Airport distance calculator
Flying to Kestrel Airpark? Find the distance to fly.

From to 1T7

Sunrise and sunset
Times for 06-Apr-2020
 Local
(UTC-5)
 Zulu
(UTC)
Morning civil twilight06:5311:53
Sunrise07:1712:17
Sunset19:5500:55
Evening civil twilight20:1901:19

Current date and time
Zulu (UTC)  07-Apr-2020 00:25:28
Local (UTC-5)  06-Apr-2020 19:25:28
 
METAR
K5C1 
15nm W 
062355Z AUTO 12003KT 10SM OVC042 21/19 A2999 RMK AO1
KSAT 
17nm S 
062351Z 00000KT 10SM OVC035 24/20 A2996 RMK AO2 SLP131 T02390200 10244 20200 55005
KRND 
20nm SE 
062356Z AUTO 00000KT 3SM HZ OVC032 23/17 A2996 RMK AO2 SLP140 T02340171 10244 20233 55002 $
KBAZ 
20nm E 
062351Z AUTO 00000KT 10SM OVC060 24/21 A2995 RMK AO2 SLP135 60001 T02390211 10261 20233 55004
KSKF 
28nm S 
062355Z 00000KT 10SM BKN049 24/18 A2994 RMK AO2A RAB44E45DZB45E54 SLP134 $
KSSF 
29nm S 
062353Z 09004KT 10SM OVC049 23/20 A2993 RMK AO2 SLP128 T02330200 10239 20228 56005
KHYI 
29nm E 
062356Z AUTO 17004KT 10SM BKN023 OVC065 24/21 A2997 RMK AO2 SLP139 T02440211 10261 20244 55004
TAF
KSAT 
17nm S 
061737Z 0618/0724 13006KT P6SM BKN015 OVC035 FM062000 13005KT P6SM SCT025 BKN045 FM070400 13005KT P6SM BKN180 FM070700 20005KT 1 1/2SM BR OVC006 FM071000 VRB04KT 4SM BR OVC007 FM071800 22008KT P6SM SCT080
KRND 
20nm SE 
061600Z 0616/0722 10006KT 9999 BKN010 QNH2998INS BECMG 0616/0617 10006KT 9999 SCT010 BKN015 QNH2995INS BECMG 0619/0620 11006KT 9999 SCT015 BKN025 QNH2993INS TEMPO 0620/0623 SCT025 BKN040 BECMG 0703/0704 VRB04KT 8000 BR BKN011 QNH2999INS BECMG 0709/0710 18005KT 3200 BR OVC003 QNH2997INS BECMG 0717/0718 VRB06KT 8000 BR BKN010 QNH3002INS TX25/0620Z TN19/0709Z LAST NO AMDS AFT 0622 NEXT 0712
NOTAMs
Click for the latest NOTAMs
NOTAMs are issued by the DoD/FAA and will open in a separate window not controlled by AirNav.

 

 
 

FBO, Fuel Providers, and Aircraft Ground Support

  
 Business Name 
 
 Contact 
 
 Services / Description 
 
Fuel Prices
 
Comments
  
 Aloha Aviation Services
830-522-1885
[web site]
[email]
Aviation fuel, Oxygen service, Aircraft parking (ramp or tiedown), Hangars, Hangar leasing / sales, Passenger terminal and lounge, Flight training, ...

More info about Aloha Aviation Services
Phillips 66
100LL
SS $3.99 
GUARANTEED
 
   6 read write
SS=Self service
Update Fuel Prices
 

Would you like to see your business listed on this page?

 If your business provides an interesting product or service to pilots, flight crews, aircraft, or users of the Kestrel Airpark, you should consider listing it here.  To start the listing process, click on the button below
 
Add a business
 

Other Pages about Kestrel Airpark

www.kestrelairport.com
www.kestrel-airpark.com
 
Update a link
 
Copyright © AirNav, LLC. All rights reserved. Privacy Policy  Contact